Location: Newark
(11.2914°S, 14.4718°E)
Time: 15:11:34
(UTC+00:00)

Vanguard 2 - Pass Details

Date: 27 September 2019
Orbit: 554 x 2937 km, 32.9° (Epoch: 14 October)

Event Time Altitude Azimuth Distance (km) Brightness Sun altitude
Rises 18:10:23 0° 233° (SW) 4,692 12.6 -18.6°
Reaches altitude 10° 18:13:03 10° 230° (SW) 3,976 12.0 -19.2°
Maximum altitude 18:24:28 71° 147° (SSE) 2,448 9.8 -22.0°
Enters shadow 18:34:00 31° 71° (ENE) 3,982 10.5 -24.3°
